{"data":{"norad_id":64591,"intl_designator":"2025-135BR","name":"AE2A","alt_names":[],"object_type":"PAYLOAD","status":"ACTIVE","operator":null,"country":"JPN","launch_date":"2025-06-23","launch_site_code":"AFWTR","launch_vehicle":null,"mission":null,"orbit_class":"UNKNOWN","rcs_meters":null,"size_class":null,"mass_kg":null,"dimensions":null,"purposes":[],"wikipedia_slug":null,"has_3d_model":false,"image_url":null,"decayed_at":null,"tle_current":{"epoch":"2026-09-21T21:49:46.291584Z","epoch_age_seconds":55859,"freshness":"FRESH","line1":"1 64591U 25135BR  26264.90956356  .00002661  00000+0  23118-3 0  9996","line2":"2 64591  97.7755  19.6244 0005163  16.2906 343.8481 14.97855357 68438","mean_motion":14.97855357,"eccentricity":0.0005163,"inclination_deg":97.7755,"raan_deg":19.6244,"arg_perigee_deg":16.2906,"mean_anomaly_deg":343.8481,"bstar":0.00023118,"rev_number":6843,"period_min":96.137453678046,"perigee_km":569.93493024058,"apogee_km":577.11321546441,"semimajor_km":6951.6610728525,"source":"CELESTRAK","updated_at":"2026-09-22T09:00:29.857091Z"}}}